Погода в Дзарджане

Погода в Дзарджане : погода сейчас, прогноз погоды и архив. Всё, что Вы хотите узнать о погоде в Дзарджане!

Поиск расширенной информации на нашем сайте:

Другие новости

Новости СМИ2

Главная страница сайта

Новости сайта

03.07.2017

Напоминаем, что на нашем специализированном сайте Метеоцентр.Азия вы можете получить высокодетализированные автоматические прогнозы погоды по пунктам России, СНГ и мира в авиационном формате (включающие направление и скорость ветра, видимость, явления погоды, количество и форму облачности, нижнюю и верхнюю границу облачности).


Погода в Дзарджане - сегодня

Время (UTC), дата Ветер
(°,м/с) 
Видим.   Явления Облачность Т
(°С)
Тd
(°С)
f(%) Тe
(°С)
Pmin
(гПа)
dP
(гПа)
Po
(мм)
O2
(г/м3)
Тmin Tmax R s Состояние
почвы
12 14.08.18 200 (Ю) 7{12}  20000 м  дым  10/0 средняя, верхняя 
[Ac trans|Cs]
+21.7 +9.9 47 +23  1012.8  0.4  756  281    +26.1       
15 14.08.18 200 (Ю) 4300 м  мгла{туман}  ?/?  
[]
+19.4 +10.7 57 +22  1012.8  756  283           
18 14.08.18 200 (Ю) 1000 м  мгла{туман}  ?/?  
[]
+18.3 +11.1 63 +20  1012.6  -0.2  756  283           
21 14.08.18 200 (Ю) 1000 м  мгла{туман}  ?/?  
[]
+17.1 +11.2 68 +21  1013  0.4  756  285           
00 15.08.18 210 (ЮЗ) 1000 м  мгла{туман}  ?/?  
[]
+17.5 +11.4 67 +21  1013  756  284  +17.1        сухая 
03 15.08.18 220 (ЮЗ) 1000 м  мгла{туман}  ?/?  
[]
+17 +12.7 76 +22  1011.8  -1.2  755  284           
06 15.08.18 300 (СЗ) 1000 м  мгла{ливн. осадки, туман}  ?/?  
[]
+16.9 +12.9 77 +23  1011  -0.8  755  284           
09 15.08.18 тихо ()   1000 м  мгла{туман}  ?/?  
[]
+16.1 +12.6 80 +21  1009.9  -1.1  754  284           
12 15.08.18 тихо ()   1000 м  мгла{туман}  ?/?  
[]
+14.9 +12.7 87 +20  1009.7  -0.3  754  286    +17.5  0.5     
15 15.08.18 030 (СВ) 1000 м    ?/?  
[]
+13.6 +13 96 +20  1008.9  -0.8  753  287           
18 15.08.18 040 (СВ) 1000 м  слаб. ливневой дождь{туман}  ?/?  
[]
+14.1 +13.7 97 +21  1007.7  -1.2  752  285           
21 15.08.18 060 (СВ) 1000 м  слаб. ливневой дождь{туман}  ?/?  
[]
+13.7 +13.1 96 +20  1005.8  -1.9  751  285           
00 16.08.18 200 (Ю) 1000 м  слаб. ливневой дождь{туман}  ?/?  
[]
+14.4 +13.3 93 +21  1005.5  -0.3  751  285  +13.6      влажная 
03 16.08.18 170 (Ю) 1000 м  мгла{ливн. осадки, туман}  ?/?  
[]
+15.4 +14.3 93 +23  1005.2  -0.3  750  283           
06 16.08.18 220 (ЮЗ) 1000 м  мгла{туман}  ?/?  
[]
+16.7 +14.8 89 +25  1004.9  -0.2  750  282           
09 16.08.18 210 (ЮЗ) 1000 м  мгла{туман}  ?/?  
[]
+16.5 +14.6 89 +25  1005.4  0.5  751  282           
12 16.08.18 200 (Ю) 1000 м  мгла{туман}  ?/?  
[]
+15.3 +14.2 93 +23  1006.3  0.8  751  284    +17.1       
15 16.08.18 120 (ЮВ) 1000 м  мгла{туман}  ?/?  
[]
+13.8 +13.4 97 +21  1007.4  1.1  752  286           
18 16.08.18 170 (Ю) 1000 м  мгла{туман}  ?/?  
[]
+13.5 +12.9 96 +20  1007.9  0.5  752  286           
21 16.08.18 160 (Ю) 1000 м  мгла{туман}  ?/?  
[]
+13.1 +12.7 97 +19  1008.3  0.4  753  287           
00 17.08.18 180 (Ю) 1000 м  мгла{туман}  ?/?  
[]
+13.6 +13 96 +20  1009.1  0.8  753  287  +13.1        влажная 
03 17.08.18 020 (С) 1000 м  мгла{туман}  ?/?  
[]
+15.3 +13.3 88 +23  1008.3  -0.8  753  285           
06 17.08.18 260 (З) 1000 м  мгла{туман}  ?/?  
[]
+17.1 +13.7 80 +24  1006.4  -1.8  751  282           
09 17.08.18 360 (С) 20000 м  дым  6/0 верхняя 
[Ci fib]
+20.2 +11.1 56 +23  1005.5  -0.9  751  280           
12 17.08.18 010 (С) 20000 м    8/0 верхняя 
[Cs]
+16.8 +11.7 72 +21  1005  -0.5  750  283    +21.8       
Время (UTC), дата Ветер
(°,м/с) 
Видим.   Явления Облачность Т
(°С)
Тd
(°С)
f(%) Тe
(°С)
Pmin
(гПа)
dP
(гПа)
Po
(мм)
O2
(г/м3)
Тmin Tmax R s Состояние
почвы

Для получения пояснительной информации подведите курсор к названию столбца.

ПОГОДА в Дзарджане - архив

Всё, что Вы хотите узнать о погоде в Дзарджане - удобно и подробно!

Выберите нужную дату (начиная с 1 января 2015* года) и нажмите кнопку "Найти".
Будут отображены архивные сводки погоды по пункту Дзарджан, начиная с указанной даты.


Отображать данные в формате CSV (для использования в таблицах Excel)


Внимание! Наш архив погоды предназначен исключительно для личного некоммерческого использования в познавательных целях. Если Вам необходимы официальные справки о состоянии погоды (для производственных, юридических, коммерческих и т.п. целей), обращайтесь в органы Росгидромета.

*Примечание: данная дата относится к архиву по метеостанциям СССР (Россия, СНГ, Балтия).
Архив по метеостанциям Зарубежной Европы и Азии (кроме Китая) хранится 10 дней, по другим регионам земного шара (Китай, Африка, Америка, Австралия, Океания) - 1 день.

Дзарджан - район местоположения метеостанции


Название, широта, долгота, высота метеостанции:
Дзарджан 68.7°ш. 124°д. 39 м над ур. моря [Российская Федерация]

Дополнительная информация

В oтличие oт бoльшинства пoгoдных сайтoв мы публикуем пoдрoбную метеoинфoрмацию в детальнoм прoфессиoнальнoм фoрмате.

Характеристики температуры и влажнoсти вoздуха измеряются на высoте 2 м в тени вдали oт зданий и деревьев.
Скoрoсть ветра измеряется на высoте 10 м (на урoвне рoста челoвека скoрoсть ветра ниже в 1.5-2 раза). Если метеoстанция нахoдится в гoрoде или в лесу, тo скoрoсть ветра занижена на 2-4 м/с пo сравнению с oткрытым местoм. Скoрoсть ветра над акватoриями крупных рек и oзёр, а также на вершинах хoлмoв на 2-5 м/с выше, чем в oбычных услoвиях.
Атмoсфернoе давление в разных тoчках местнoсти мoжет значительнo oтличаться oт давления на метеoстанции, в зависимoсти oт услoвий рельефа (при пoдъёме на 10 м давление пoнижается примернo на 1 мм рт.ст.).